Regional Weather Roundup
Issued by NWS Jackson, KY

Home | Current Version | Previous Version | Text Only | Print | Product List | Glossary Off
Versions: 1 2 3 4 5 6 7 8 9 10 11 12 13 14 15 16 17 18 19 20 21 22 23 24 25 26 27

000
ASUS43 KJKL 280110
RWRJKL

EAST KENTUCKY HOURLY WEATHER ROUNDUP
NATIONAL WEATHER SERVICE JACKSON KY
900 PM EDT SAT AUG 27 2016

NOTE: "FAIR" INDICATES FEW OR NO CLOUDS BELOW 12,000 FEET WITH
NO SIGNIFICANT WEATHER AND/OR OBSTRUCTIONS TO VISIBILITY.

* THESE REPORTS ARE NOT UNDER NWS QUALITY CONTROL AND MAY NOT
  REPORT WEATHER SUCH AS PRECIPITATION AND FOG.

KYZ079-080-083-085-087-088-110-112-115-119-120-280200
...EASTERN KENTUCKY...

CITY           SKY/WX    TMP DP  RH WIND       PRES   REMARKS
JACKSON        CLEAR     81  72  74 CALM      30.15R
LONDON         PTCLDY    82  72  71 CALM      30.14R
SOMERSET*      MOCLDY    79  70  73 N6        30.15R
MONTICELLO*    PTCLDY   N/A N/A N/A N13G18    30.15R
WILLIAMSBURG*  PTCLDY    79  79 100 CALM      30.14R
MIDDLESBORO*   TSTM      71  68  89 W16G25    30.23R
HARLAN APT*    CLOUDY    77  70  78 CALM      30.18R
PIKE CO APT*     N/A     83  71  69 CALM      30.16R
BIG SANDY APT* PTCLDY    81  73  75 CALM      30.14S
MOREHEAD APT*  CLEAR     77  72  83 CALM      30.15S
ASHLAND*       CLEAR     81  72  74 CALM      30.11R
$$

KYZ035-036-041-042-044-050-067-078-099-280200
...CENTRAL KENTUCKY...

CITY           SKY/WX    TMP DP  RH WIND       PRES   REMARKS
MT STERLING*   PTCLDY    73  72  94 CALM      30.16R
FLEMING/MASON* CLEAR     75  71  85 CALM      30.15S
DANVILLE*      CLOUDY    73  72  94 CALM      30.15R
LEXINGTON      MOCLDY    79  72  79 NE8       30.14R
FRANKFORT      CLOUDY    82  72  71 CALM      30.12R
LOUISVILLE     CLOUDY    84  75  74 SE9       30.09R HX  92
GLASGOW*       PTCLDY    79  71  76 E8        30.10S
BOWLING GREEN  PTCLDY    79  73  82 SE3       30.08R
$$

KYZ091>093-OHZ055-061-077-WVZ005-015-034-035-042-280200
...SOUTHERN OHIO/WEST VIRGINIA...

CITY           SKY/WX    TMP DP  RH WIND       PRES   REMARKS
COVINGTON      PTCLDY    77  73  87 SE7       30.13R
COLUMBUS       CLOUDY    73  69  87 NE3       30.14R
DAYTON         PTCLDY    75  71  87 SE3       30.14R
WILMINGTON     CLEAR     72  70  93 CALM      30.14R
HUNTINGTON     CLEAR     81  74  79 CALM      30.12R
CHARLESTON     PTCLDY    79  72  79 CALM      30.13R
PINEVILLE*     PTCLDY    75  69  81 MISG      30.25R
BECKLEY        CLOUDY    78  68  71 SE7       30.25R
BLUEFIELD      CLOUDY    70  64  81 SE6       30.29R
LOGAN CO APT*    N/A     84  72  65 CALM      30.17R
$$

VAZ002-007-008-TNZ017-027-036-066-071-280200
...SOUTHWEST VIRGINIA/EAST TENNESSEE...

CITY           SKY/WX    TMP DP  RH WIND       PRES   REMARKS
WISE*          CLOUDY    79  61  53 CALM      30.25S
JONESVILLE*      N/A     77  73  88 CALM      30.18R
ABINGDON*      PTCLDY    78  72  80 CALM      30.21R
BRISTOL        CLOUDY    80  69  69 SW3       30.17R THUNDER
MORRISTOWN*    CLEAR     79  66  65 CALM      30.15R
SEVIERVILLE*   CLEAR     73  70  88 CALM      30.14S
KNOXVILLE      PTCLDY    75  69  81 SW8       30.12R
OAK RIDGE      PTCLDY    80  69  69 E6        30.15R
CROSSVILLE     PTCLDY    76  69  79 W7        30.18R
NASHVILLE      CLOUDY    75  71  87 NE3       30.10R
$$

...KEY TO REMARKS...
VSB - VISIBILITY IN MILES
WCI - WIND CHILL INDEX
HX  - HEAT INDEX

$$




USA.gov is the U.S. government's official web portal to all federal, state and local government web resources and services.